Flag for Germany Weather past 2 weeks in Sundern (Sauerland), North Rhine-Westphalia, Germany

Now
34 °F

Sunny.


Feels Like: 27 °F
Forecast: 27 / 33 °F
Wind: 8 mph from Southwest

Location: Dortmund / Wickede

Current Time: Dec 26, 2014 at 4:51:24 PM

Latest Report: Dec 26, 2014 at 4:20 PM


Visibility: 10 mi

Pressure: 30.30 "Hg

Humidity: 87%

Dew point: 30 °F

Location of Sundern (Sauerland)Location

Historic Weather in Sundern (Sauerland) — Graph

°F

Sundern (Sauerland) temperature yesterday

Maximum temperature yesterday: 41 °F (at 2:20 PM)
Minimum temperature yesterday: 37 °F (at 4:50 PM)
Average temperature yesterday: 39 °F

Past Weeks' High & Low Weather Summary

 TemperatureHumidityPressure
High54 °F (Dec 18, 5:20 PM)93% (Dec 13, 10:20 PM)30.39 "Hg (Dec 13, 10:20 PM)
Low32 °F (Dec 14, 10:50 PM)65% (Dec 15, 5:50 AM)29.39 "Hg (Dec 12, 12:50 PM)
Average43 °F83%29.92 "Hg
* Reported Dec 11 3:20 PM — Dec 26 3:20 PM, Sundern (Sauerland), Weather by CustomWeather, © 2014

Note: Actual official high and low records may vary slightly from our data, if they occured in-between our weather recording intervals... More about our weather records

Advertising

Sundern (Sauerland) weather history for previous 24 hours

 ConditionsComfort  
Time TempWeatherWind HumidityBarometerVisibility
3:20 PM
Dec 26
36 °FPassing clouds.8 mph87%30.33 "HgN/A
2:50 PM37 °FPassing clouds.7 mph81%30.33 "HgN/A
2:20 PM37 °FScattered clouds.6 mph81%30.33 "HgN/A
1:50 PM37 °FScattered clouds.7 mph87%30.33 "HgN/A
1:20 PM39 °FScattered clouds.7 mph81%30.33 "HgN/A
12:50 PM37 °FScattered clouds.6 mph87%30.36 "HgN/A
12:20 PM37 °FPassing clouds.7 mph87%30.36 "Hg5 mi
11:50 AM36 °FBroken clouds.7 mph93%30.36 "Hg4 mi
11:20 AM36 °FFog.6 mph93%30.39 "Hg3 mi
10:50 AM36 °FFog.3 mph87%30.39 "Hg2 mi
10:20 AM34 °FFog.6 mph93%30.36 "Hg1 mi
9:50 AM34 °FFog.7 mph93%30.36 "Hg1 mi
9:20 AM34 °FPassing clouds.5 mph87%30.36 "Hg4 mi
8:50 AM34 °FFog.7 mph93%30.36 "Hg3 mi
8:20 AM34 °FPassing clouds.7 mph93%30.36 "Hg4 mi
7:50 AM34 °FPassing clouds.7 mph93%30.36 "Hg5 mi
6:20 PM
Dec 25
37 °FClear.9 mph87%30.24 "Hg10 mi
5:50 PM37 °FClear.9 mph87%30.24 "Hg10 mi
5:20 PM37 °FClear.10 mph87%30.21 "Hg10 mi
4:50 PM37 °FClear.10 mph87%30.21 "Hg10 mi
4:20 PM39 °FScattered clouds.10 mph81%30.21 "HgN/A
Weather by CustomWeather, © 2014

See weather overviewHow to use our weather pages